User: anonymous   Login
Location: Bonneuil
(46.1010°N, 2.9693°E)
Time: 00:02:54
(UTC+00:00)
Language:

MetOp-B - Orbit

View from above orbital plane
View from above orbital plane
View from above satellite
View from above satellite

Ground track
Ground track

The orbit data is extracted from the following two-line orbital elements,

1 38771U 12049A   20188.44975694 -.00000004 +00000-0 +18288-4 0  9995
2 38771 098.6904 247.4659 0000728 037.8040 160.5470 14.21499530404717
Epoch (UTC): 06 July 2020 10:47:39
Eccentricity: 0.0000728
inclination: 98.6904°
perigee height: 820 km
apogee height: 821 km
right ascension of ascending node: 247.4659°
argument of perigee: 37.8040°
revolutions per day: 14.21499530
mean anomaly at epoch: 160.5470°
orbit number at epoch: 40471

The dashed part of the orbit path shows where the satellite is in the earth's shadow,  

DLR